Weather History for CYSN - April, 2014

Change the Weather History Date:

Tuesday, April 15, 2014

  Actual Average Record
Temperature  
Mean Temperature 30 °F -  
Max Temperature 33 °F - - ()
Min Temperature 26 °F - - ()
Degree Days  
Heating Degree Days 34    
Moisture  
Dew Point 27 °F    
Average Humidity 84    
Maximum Humidity 100    
Minimum Humidity 64    
Precipitation  
Precipitation 0.00 in - - ()
Sea Level Pressure  
Sea Level Pressure 29.82 in    
Wind  
Wind Speed 13 mph ()    
Max Wind Speed 24 mph    
Max Gust Speed 31 mph    
Visibility 7.8 miles    
Events Rain , Snow    
T = Trace of Precipitation, MM = Missing Value Source: Averaged Metar Reports

Daily Weather History Graph

Daily Weather History Graph

Search for Another Location

Airport or City:

Trip Planner

Search our weather history database for the weather conditions in past years. The results will help you decide how hot, cold, wet, or windy it might be!

Date:

Astronomy

Apr. 15, 2014 Rise Set
Actual Time 6:34 AM EDT 7:59 PM EDT
Civil Twilight 6:05 AM EDT 8:29 PM EDT
Nautical Twilight 5:29 AM EDT 9:05 PM EDT
Astronomical Twilight 4:51 AM EDT 9:43 PM EDT
Moon 8:39 PM EDT (4/15) 6:41 AM EDT (4/15)
Length of Visible Light 14h 24m
Length of Day
13h 24m
Full, 100% of the Moon is Illuminated
Apr 15
Full
Apr 22
Last Quarter
Apr 29
New
May 6
First Quarter
May 14
Full

Hourly Weather History & Observations

Time (EDT) Temp. Windchill Dew Point Humidity Pressure Visibility Wind Dir Wind Speed Gust Speed Precip Events Conditions
7:00 AM 33.8 °F 25.3 °F 32.0 °F 93% 29.67 in 4.0 mi NNW 11.5 mph 18.4 mph N/A Rain Light Rain
7:45 AM 32.0 °F 22.5 °F 32.0 °F 100% 29.68 in 4.0 mi NNW 12.7 mph - N/A   Overcast
7:48 AM 32.0 °F 23.6 °F 32.0 °F 100% 29.68 in 4.0 mi NNW 10.4 mph - N/A Snow Light Snow
8:00 AM 32.0 °F 24.2 °F 32.0 °F 100% 29.70 in 2.0 mi NW 9.2 mph - N/A Snow Light Snow
8:20 AM 32.0 °F 22.1 °F 32.0 °F 100% 29.71 in 1.0 mi NW 13.8 mph - N/A Snow Light Snow
9:00 AM 32.0 °F 22.5 °F 32.0 °F 100% 29.71 in 1.0 mi WNW 12.7 mph - N/A Snow Light Snow
9:37 AM 32.0 °F 21.2 °F 32.0 °F 100% 29.73 in 3.0 mi WNW 16.1 mph 23.0 mph N/A Snow Light Snow
9:50 AM 32.0 °F 20.8 °F 30.2 °F 93% 29.72 in 1.5 mi WNW 17.3 mph 26.5 mph N/A Snow Light Snow
10:00 AM 32.0 °F 22.1 °F 30.2 °F 93% 29.73 in 1.5 mi NW 13.8 mph 20.7 mph N/A Snow Light Snow
11:00 AM 32.0 °F 21.2 °F 30.2 °F 93% 29.77 in 3.0 mi WNW 16.1 mph 23.0 mph N/A Snow Light Snow
12:00 PM 32.0 °F 20.8 °F 28.4 °F 87% 29.80 in 3.0 mi WNW 17.3 mph - N/A Snow Light Snow
1:00 PM 32.0 °F 20.8 °F 26.6 °F 80% 29.81 in 8.0 mi WNW 17.3 mph 26.5 mph N/A Snow Light Snow
2:00 PM 32.0 °F 20.8 °F 23.0 °F 69% 29.83 in 15.0 mi NW 17.3 mph - N/A   Overcast
3:00 PM 32.0 °F 19.5 °F 23.0 °F 69% 29.88 in 15.0 mi West 21.9 mph 31.1 mph N/A   Overcast
4:00 PM 32.0 °F 20.1 °F 24.8 °F 75% 29.91 in 15.0 mi West 19.6 mph 31.1 mph N/A   Overcast
5:00 PM 30.2 °F 17.4 °F 21.2 °F 69% 29.94 in 15.0 mi WNW 20.7 mph 27.6 mph N/A   Overcast
6:00 PM 30.2 °F 17.8 °F 19.4 °F 64% 29.97 in 15.0 mi WNW 19.6 mph 28.8 mph N/A   Mostly Cloudy
7:00 PM 28.4 °F 15.1 °F 17.6 °F 64% 30.03 in 15.0 mi WNW 20.7 mph 27.6 mph N/A   Mostly Cloudy
8:00 PM 28.4 °F 15.1 °F 17.6 °F 64% 30.04 in 15.0 mi WNW 20.7 mph 29.9 mph N/A   Mostly Cloudy
9:00 PM 26.6 °F 11.7 °F 17.6 °F 69% 30.11 in 15.0 mi NW 24.2 mph 31.1 mph N/A   Mostly Cloudy